Theta_e
334 336 336 337 338 342 342 338 340 325 328 334 331 334 335 336 333 336 331 324 322 319 317 314 312 309 307 306 306 306 305 306 307 308 310 312 314 315
333 333 334 336 337 338 340 341 338 335 326 336 333 332 332 333 331 333 330 323 319 317 314 312 309 307 305 305 305 305 305 305 306 307 308 309 310 312
331 331 331 335 333 336 340 340 338 337 331 335 330 331 328 330 325 328 326 324 320 315 313 310 307 306 305 305 304 304 304 304 306 307 308 309 310 311
324 327 328 329 334 335 336 339 338 339 334 335 327 325 326 326 324 323 320 321 323 314 312 308 306 305 305 304 304 304 302 303 304 305 306 308 309 309
322 324 327 331 327 331 334 335 335 335 335 332 326 324 319 321 318 319 319 321 322 315 312 308 307 305 305 304 303 305 302 302 303 303 304 306 306 307
321 321 323 324 323 323 326 333 335 334 334 331 331 324 320 319 319 316 313 317 320 319 317 313 310 307 305 304 304 304 302 302 301 302 303 303 303 304
319 318 318 319 319 321 322 322 329 331 332 328 326 325 319 317 317 320 319 318 320 322 320 318 315 314 312 306 306 303 300 301 302 303 303 302 301 301
313 316 319 317 318 314 315 315 318 321 328 331 328 325 325 323 322 320 318 313 315 321 320 319 318 317 316 314 305 303 301 301 303 304 303 302 300 300
309 312 314 315 316 317 313 312 314 314 314 324 328 330 329 326 325 319 320 319 321 319 319 318 317 317 318 312 303 302 300 300 302 302 302 302 300 298
306 308 311 313 315 313 314 315 315 318 324 324 323 331 335 334 328 327 323 323 319 318 322 318 317 317 317 316 303 301 300 301 302 301 302 302 300 298
304 306 307 309 305 299 311 312 313 315 313 312 310 309 309 311 322 322 318 317 315 315 318 319 315 315 317 316 310 302 300 301 301 301 301 301 301 302
303 304 302 304 297 297 309 311 311 313 314 318 324 318 309 314 311 325 319 315 318 316 316 316 315 314 313 315 313 310 308 301 301 300 300 300 300 315
300 301 304 298 295 295 296 308 308 310 312 314 316 324 319 318 319 323 321 324 319 324 318 320 317 315 318 308 313 313 310 307 313 309 300 299 299 304
298 300 302 295 294 294 296 299 297 298 308 311 313 320 319 316 318 319 321 327 329 328 320 322 316 314 312 314 312 311 309 309 315 315 311 303 300 298
297 297 296 294 294 297 297 296 297 306 306 309 310 316 323 320 321 319 322 325 323 321 319 315 312 316 311 317 313 311 307 308 313 314 312 312 312 313
295 296 296 294 294 296 298 302 306 308 308 308 310 316 325 323 319 319 315 315 315 312 315 313 312 316 309 314 316 310 310 307 311 313 310 309 307 308
292 293 294 294 295 297 298 301 304 306 309 310 310 311 319 322 318 318 316 314 312 305 305 306 310 309 311 315 313 311 309 309 311 311 312 309 302 303
291 290 290 292 292 294 296 298 302 304 307 311 311 311 317 320 320 317 317 314 311 309 306 303 304 302 304 308 307 310 309 308 312 313 313 311 307 301
289 290 290 291 292 293 294 297 300 301 307 310 311 313 317 318 318 317 316 315 314 309 307 303 303 309 306 308 305 299 308 308 312 310 313 315 308 300
291 291 290 292 293 293 294 296 300 300 301 306 312 312 316 316 317 317 318 316 314 311 306 305 306 313 312 305 305 306 294 308 312 307 301 300 297 295
291 291 293 292 293 294 295 297 299 300 301 304 307 312 315 316 317 318 318 304 306 310 305 305 309 297 303 304 299 302 305 297 307 311 303 305 307 305
291 291 292 293 294 295 296 298 299 300 299 303 306 308 315 317 316 319 318 312 312 310 309 305 303 304 306 303 299 300 302 303 300 299 298 299 312 308
290 292 291 293 294 295 296 297 299 300 300 303 303 310 313 316 318 320 319 317 314 311 303 300 302 305 303 303 297 300 303 303 305 305 298 298 298 298
Wind_Speed
5 6 7 6 6 5 6 8 7 9 7 7 5 7 5 6 7 6 7 12 14 13 12 10 9 6 6 5 4 5 6 8 9 9 10 11 13 15
3 5 6 6 8 6 5 7 8 9 10 4 6 4 6 5 8 7 8 11 11 11 12 10 8 7 5 5 5 6 7 8 9 10 12 13 14 15
5 4 5 8 7 6 4 4 6 7 10 3 2 6 7 8 7 7 9 6 6 10 11 9 8 7 6 5 6 5 7 8 10 11 12 13 14 15
7 8 7 5 8 8 7 6 5 6 8 10 3 3 3 8 8 8 6 5 6 10 11 10 8 8 5 5 4 4 6 7 9 12 12 12 13 14
8 8 8 7 5 7 8 8 6 5 6 7 4 3 2 6 4 4 6 5 5 11 10 10 9 8 6 4 3 4 5 7 10 11 13 12 12 17
7 7 7 7 5 5 8 8 6 6 6 7 6 4 3 4 5 6 5 5 6 7 7 2 9 10 7 5 3 3 4 8 10 11 11 10 11 15
9 7 5 9 9 5 2 5 8 8 7 7 7 6 5 4 8 5 6 6 7 6 6 6 7 7 7 8 3 5 3 7 10 11 10 10 11 13
10 10 8 8 5 6 6 6 4 5 9 8 8 8 11 9 8 7 7 6 6 9 7 6 6 6 5 4 7 5 3 7 9 10 8 9 13 14
10 9 8 6 8 8 5 8 7 8 7 8 11 10 9 11 10 11 10 10 5 6 8 5 5 5 5 6 7 6 4 7 8 9 7 7 12 16
11 10 10 10 9 7 8 7 7 7 7 3 7 11 10 10 12 11 10 8 4 6 6 4 5 4 5 5 9 7 5 7 8 8 7 6 6 15
11 11 11 11 9 4 7 9 8 8 6 10 10 12 10 12 12 7 9 11 7 5 6 4 5 4 4 6 7 7 8 8 8 10 9 7 3 7
11 11 8 11 4 4 9 9 8 9 8 9 7 5 6 12 18 13 9 10 5 5 8 6 6 6 5 4 6 7 7 9 6 9 10 10 9 6
8 8 8 7 4 6 7 8 9 7 9 9 9 6 4 8 9 11 10 11 7 3 8 9 8 6 2 5 5 5 5 6 3 6 9 10 11 10
8 8 6 3 6 7 8 6 7 8 7 9 8 7 5 7 10 10 9 9 5 6 15 8 5 7 6 5 6 6 5 4 3 5 4 3 8 16
7 8 7 6 7 10 10 7 9 7 7 9 9 10 8 8 10 7 9 10 4 8 12 5 3 9 2 5 7 7 8 5 4 5 3 4 5 5
9 8 7 10 10 11 12 11 8 8 7 7 9 10 6 7 8 7 6 8 6 5 6 5 5 8 3 4 6 9 6 5 6 6 6 6 5 7
10 10 10 10 10 10 10 9 9 9 9 9 9 8 10 9 8 8 7 8 6 8 5 5 6 5 6 5 5 8 8 8 6 7 6 7 5 6
9 9 9 9 11 9 9 9 9 9 10 10 8 8 12 9 9 8 8 9 8 8 8 6 9 5 3 4 7 8 8 9 7 6 6 7 6 5
8 9 9 9 9 9 9 11 9 9 9 9 9 10 12 9 7 8 9 9 9 9 8 9 10 8 9 9 4 6 9 9 9 6 5 3 7 5
9 10 9 9 9 9 10 11 10 8 8 8 10 10 12 10 7 8 9 10 9 8 8 9 11 12 11 10 7 8 11 10 9 8 6 6 6 10
9 9 9 8 9 9 10 10 11 8 7 8 7 10 12 11 10 9 9 10 9 7 10 11 10 7 8 10 8 9 7 14 6 9 9 7 7 5
9 8 9 8 8 9 9 9 10 8 8 9 9 7 11 12 11 11 9 9 10 9 7 6 8 9 5 4 11 14 11 9 14 19 15 7 1 7
9 9 8 8 8 8 10 8 10 7 8 8 6 10 10 12 11 10 9 11 10 9 10 9 6 4 3 7 13 11 17 14 11 10 10 10 9 17
Wind_Direction
275 267 261 257 252 258 253 249 250 260 233 211 199 195 193 172 155 151 140 137 140 135 127 125 122 114 100 82 44 27 1 347 341 340 333 330 332 333
318 299 288 272 257 251 237 245 253 256 265 177 213 159 176 178 155 162 150 143 142 138 132 131 135 120 104 86 50 16 2 346 339 338 338 337 331 323
346 339 319 289 273 264 230 209 236 242 258 173 134 176 174 179 162 155 156 149 149 149 141 148 147 138 137 105 68 17 2 344 342 345 343 340 337 333
342 340 331 323 287 263 259 242 241 222 255 250 161 164 195 177 164 162 161 170 180 158 158 164 170 161 164 121 93 28 7 345 343 350 343 351 351 343
332 334 351 344 329 299 267 260 241 218 219 234 196 170 135 155 144 146 164 188 204 154 172 177 179 180 186 168 123 53 0 344 343 339 351 359 357 345
318 323 343 340 356 7 335 281 251 237 209 217 206 178 166 156 177 179 170 200 200 190 193 145 181 183 193 204 187 86 12 344 347 338 350 359 353 348
307 305 317 329 326 337 353 325 304 258 230 208 213 190 180 164 185 189 206 194 209 208 193 181 197 195 181 210 192 125 24 349 350 349 357 10 359 8
299 307 314 296 291 323 335 321 285 304 267 235 213 206 210 203 175 181 184 186 211 192 202 196 212 204 183 195 108 117 54 8 355 4 8 31 20 26
292 295 300 298 311 313 314 309 299 280 233 277 268 229 211 201 180 177 189 208 209 137 196 188 195 222 175 140 153 143 82 33 13 16 23 39 36 33
287 289 282 284 285 308 302 292 292 298 288 262 248 270 245 196 199 197 189 187 131 154 180 182 170 202 158 134 142 143 101 72 35 22 24 39 48 55
297 287 288 278 290 134 273 275 282 283 283 269 244 268 254 176 182 156 166 187 184 174 177 177 180 164 161 145 136 147 108 92 60 34 24 15 24 90
292 292 250 264 78 211 259 265 263 267 284 297 301 267 230 197 176 192 173 190 163 156 179 180 167 167 157 136 144 167 148 118 92 55 34 23 350 75
287 278 278 124 208 214 250 259 253 312 289 278 278 271 201 196 198 200 188 206 176 134 154 179 178 161 66 141 149 160 170 145 176 130 93 43 44 47
292 288 300 12 301 288 261 264 260 262 255 257 254 256 206 198 200 205 189 220 237 130 160 189 147 166 163 155 150 160 158 145 167 104 100 124 97 69
285 297 287 233 271 277 243 270 260 238 245 241 243 241 216 205 197 206 185 194 143 126 156 160 154 148 174 168 144 156 156 155 152 114 109 73 47 62
301 292 298 287 269 266 269 261 256 233 232 246 247 256 228 214 187 175 172 160 145 114 120 125 123 148 123 141 145 143 155 148 152 126 113 91 69 67
303 287 278 270 267 262 258 258 257 254 231 232 237 246 240 212 192 177 173 169 153 149 144 110 97 84 75 150 142 147 150 138 144 139 147 109 67 64
267 268 266 264 262 264 264 256 253 244 252 235 231 230 240 221 196 184 176 181 164 169 144 147 138 127 124 115 19 153 149 141 141 155 154 128 109 68
249 253 252 255 256 252 256 253 240 252 249 272 219 231 228 221 202 184 178 182 178 165 164 159 161 165 150 157 137 14 150 147 142 142 140 134 117 83
239 249 249 254 254 240 244 250 241 242 250 251 245 216 231 217 202 212 172 184 166 157 158 167 174 190 177 156 153 134 8 153 157 137 116 83 82 117
250 249 251 247 243 246 243 249 242 234 243 245 269 232 222 218 210 206 188 177 154 157 169 182 190 108 106 104 107 135 124 39 58 147 146 156 149 138
263 251 246 246 245 245 249 241 244 230 242 245 246 248 230 216 213 199 182 164 168 164 171 131 135 136 144 132 135 141 142 117 84 74 51 10 219 164
270 266 259 253 247 245 244 245 241 233 237 246 252 247 228 216 210 196 174 168 165 150 142 134 126 93 74 139 136 146 146 146 147 121 57 33 70 84